This is the latest recevied weather packets stored in our database for station/object HS2XQB-3. If no packets are shown the sender has not sent any weather packets the latest 10 day(s).
| Time | Temp. | Humidity | Pressure | Rain* | Wind** | Luminosity | Snow |
|---|---|---|---|---|---|---|---|
| 1778154520 | 24.44° C | 78% | 1003 hPa | - | - | 0 W/m² | - |
| 1778152696 | 24.44° C | 72% | 1003 hPa | - | - | 0 W/m² | - |
| 1778150873 | 23.89° C | 70% | 1003 hPa | - | - | 0 W/m² | - |
| 1778149049 | 24.44° C | 72% | 1002 hPa | - | - | 0 W/m² | - |
| 1778147226 | 24.44° C | 73% | 1002 hPa | - | - | 0 W/m² | - |
| 1778145403 | 24.44° C | 68% | 1002 hPa | - | - | 0 W/m² | - |
| 1778143581 | 24.44° C | 65% | 1002 hPa | - | - | 0 W/m² | - |
| 1778141759 | 23.89° C | 66% | 1002 hPa | - | - | 0 W/m² | - |
| 1778139936 | 23.89° C | 65% | 1002 hPa | - | - | 0 W/m² | - |
| 1778138114 | 23.89° C | 69% | 1002 hPa | - | - | 0 W/m² | - |
| 1778136291 | 24.44° C | 75% | 1003 hPa | - | - | 0 W/m² | - |
| 1778134468 | 23.89° C | 68% | 1004 hPa | - | - | 0 W/m² | - |
| 1778132645 | 23.89° C | 69% | 1005 hPa | - | - | 0 W/m² | - |
| 1778130822 | 24.44° C | 66% | 1005 hPa | - | - | 0 W/m² | - |
| 1778128999 | 23.89° C | 48% | 1005 hPa | - | - | 0 W/m² | - |
| 1778127177 | 25.56° C | 43% | 1005 hPa | - | - | 0 W/m² | - |
| 1778125355 | 25.56° C | 44% | 1005 hPa | - | - | 0 W/m² | - |
| 1778123532 | 25° C | 45% | 1005 hPa | - | - | 0 W/m² | - |
| 1778121709 | 24.44° C | 46% | 1005 hPa | - | - | 0 W/m² | - |
| 1778119887 | 25° C | 56% | 1006 hPa | - | - | 0 W/m² | - |
| 1778118064 | 25.56° C | 48% | 1005 hPa | - | - | 0 W/m² | - |
| 1778116241 | 24.44° C | 50% | 1005 hPa | - | - | 0 W/m² | - |
| 1778114419 | 24.44° C | 66% | 1005 hPa | - | - | 0 W/m² | - |
| 1778112597 | 24.44° C | 76% | 1005 hPa | - | - | 0 W/m² | - |
| 1778110775 | 24.44° C | 82% | 1004 hPa | - | - | 0 W/m² | - |
* Rain since midnight (hover to see other rain measurements)
** Current wind speed in m/s (hover to see current wind gust speed)